sat.trackr.live / text

‹ back to catalog

STARLINK-37152

NORAD 68616 · 2026-073Q

PAYLOAD ACTIVE UNKNOWN

§ Identity

Operator
Country
US
Launch date
2026-04-07
Launch site
AFWTR
Launch vehicle
Mass (kg)
RCS (m²)

Purposes: comms

External: N2YO · Heavens-Above · Gunter

§ Orbital elements

Epoch: 2026-05-25T04:00:03.998880Z

Period
92.95 min
Inclination
97.2855°
Eccentricity
0.0001878
Mean motion
15.49191064 rev/d
Perigee alt
417.8 km
Apogee alt
420.4 km
Semi-major
6,797.2 km
B*
-3.0426e-4
RAAN
344.5781°
Arg perigee
94.0688°
Mean anomaly
29.8744°
Rev number
599

§ Raw data

STARLINK-371521 68616U 26073Q   26145.16671295 -.00016605  00000+0 -30426-3 0  99972 68616  97.2855 344.5781 0001878  94.0688  29.8744 15.49191064  5993

JSON: /api/v1/satellites/68616 · /tle

For live sub-satellite position, see the globe view (requires WebGL).

§ Visibility from observer

Set your observer location to see the next 7 days of passes ≥ 10°. The values pass through the URL so the page stays shareable.

No JS? Fill the form by hand. The geolocation button needs JavaScript.